Powrót do katalogu

SL-8 R/B

AktywnyPO
NORAD 7737·ROCKET BODY·🇷🇺 Russia

Wystrzelony Apr 11, 1975 z Plesetsk Cosmodrome

Loading…

Następne Przeloty (najbliższe 24 godziny)

TLE

ŚwieżeSource: Space-Track

Epoka: Sep 14, 2026, 13:00 UTC

1 07737U 75028B   26257.54233382  .00000122  00000-0  10094-3 0  9990
2 07737  82.9896 110.6556 0018101   1.5688  16.1958 13.80827124589403

Śledź SL-8 R/B w czasie rzeczywistym z AllMySat

Download on the App Store